Date String (YYYY-MM-DD hh:mm:ss) UTC,Instrument flags,absolute air pressure of the measurement (hPa),sample flow rate (lpm),inlet stack bypass flow (lpm),air temperature of the measurement (°C),ambient temperature measured by the external sensor (°C),aerosol sample conditioner tube jacket temperature (°C),OPC LED temperature (°C),internal box temperature (°C),relative humidity of the measurement (%),span deviation,mass concentration of particles derived from Lorenz-Mie calculation of OPC scattering (μg/m³),mass concentration of particles derived from Lorenz-Mie calculation of OPC scattering (μg/m³),mass concentration of particles derived from Lorenz-Mie calculation of OPC scattering (μg/m³)
DateTimeUTC,F1_M11,P_M11,Q1_M11,Q2_M11,T1_M11,T2_M11,T3_M11,T4_M11,T5_M11,U1_M11,ZSPAN_M11,X0_M11,X2_M11,X1_M11
2023-08-14 05:00:00,SystemResetWarning,0840.8,5.00,000.00,029.4,028.0,000.0,038.0,031.1,21.5,0001.9,0012.91,0004.10,0003.47
2023-08-14 05:01:00,SystemResetWarning,0840.8,4.99,000.00,029.5,028.1,000.0,038.0,031.1,21.5,0002.4,0013.06,0004.08,0003.47
2023-08-14 05:02:00,SystemResetWarning,0840.8,4.99,000.00,029.5,028.2,000.0,038.0,031.2,21.9,0002.5,0013.07,0004.07,0003.47
2023-08-14 05:03:00,SystemResetWarning,0840.8,5.01,000.00,029.5,028.3,000.0,038.0,031.2,22.0,0001.7,0013.95,0004.08,0003.46
2023-08-14 05:04:00,SystemResetWarning,0840.8,5.00,000.00,029.5,028.3,000.0,038.1,031.2,22.0,0001.3,0014.48,0004.10,0003.46
2023-08-14 05:05:00,SystemResetWarning,0840.8,5.00,000.00,029.6,028.4,000.0,038.1,031.2,21.9,0001.3,0014.19,0004.06,0003.46
2023-08-14 05:06:00,SystemResetWarning,0840.8,5.00,000.00,029.6,028.4,000.0,038.1,031.3,21.8,0001.1,0014.23,0004.05,0003.45
2023-08-14 05:07:00,SystemResetWarning,0840.8,4.99,000.00,029.6,028.5,000.0,038.1,031.3,21.8,0001.3,0013.86,0004.08,0003.44
2023-08-14 05:08:00,SystemResetWarning,0840.9,4.99,000.00,029.7,028.5,000.0,038.1,031.3,21.7,0001.2,0013.28,0004.09,0003.44
2023-08-14 05:09:00,SystemResetWarning,0840.9,4.99,000.00,029.7,028.5,000.0,038.2,031.3,21.6,0001.5,0013.19,0004.09,0003.44
2023-08-14 05:10:00,SystemResetWarning,0840.9,5.00,000.00,029.7,028.6,000.0,038.2,031.4,21.4,0001.8,0012.21,0004.07,0003.44
2023-08-14 05:11:00,SystemResetWarning,0840.9,5.00,000.00,029.7,028.6,000.0,038.2,031.4,21.2,0002.1,0011.92,0004.07,0003.44
2023-08-14 05:12:00,SystemResetWarning,0840.8,4.99,000.00,029.7,027.6,000.0,038.1,031.3,21.1,0001.7,0011.42,0004.04,0003.45
2023-08-14 05:13:00,SystemResetWarning,0840.8,5.00,000.00,029.7,025.6,000.0,038.0,031.0,21.1,0001.7,0011.88,0004.01,0003.46
2023-08-14 05:14:00,SystemResetWarning,0840.7,5.00,000.00,029.6,025.2,000.0,037.9,030.8,21.3,0002.1,0010.80,0003.99,0003.46
2023-08-14 05:15:00,SystemResetWarning,0840.7,5.01,000.00,029.5,025.4,000.0,037.9,030.6,21.6,0002.6,0010.69,0003.97,0003.47
2023-08-14 05:16:00,SystemResetWarning,0840.7,5.00,000.00,029.4,025.8,000.0,038.0,030.6,21.8,0002.3,0010.41,0003.99,0003.47
2023-08-14 05:17:00,SystemResetWarning,0840.8,4.99,000.00,029.3,026.2,000.0,038.0,030.7,21.9,0002.3,0009.77,0004.01,0003.48
2023-08-14 05:18:00,SystemResetWarning,0840.7,5.00,000.00,029.3,026.6,000.0,038.0,030.8,21.7,0002.6,0009.74,0003.98,0003.48
2023-08-14 05:19:00,SystemResetWarning,0840.8,5.01,000.00,029.3,026.9,000.0,038.0,030.9,21.6,0002.1,0009.76,0003.99,0003.47
2023-08-14 05:20:00,SystemResetWarning,0840.8,5.00,000.00,029.4,027.2,000.0,038.0,030.9,21.7,0001.7,0009.92,0004.01,0003.48
2023-08-14 05:21:00,SystemResetWarning,0840.8,5.00,000.00,029.4,027.4,000.0,038.0,030.9,21.8,0001.9,0009.98,0004.02,0003.49
2023-08-14 05:22:00,SystemResetWarning,0840.8,5.00,000.00,029.4,027.6,000.0,038.0,031.0,21.5,0001.8,0009.63,0004.05,0003.49
2023-08-14 05:23:00,SystemResetWarning,0840.7,5.00,000.00,029.4,027.8,000.0,038.0,031.0,21.5,0002.3,0009.67,0004.06,0003.50
2023-08-14 05:24:00,SystemResetWarning,0840.7,5.00,000.00,029.4,027.9,000.0,038.0,031.0,21.4,0002.4,0009.47,0004.06,0003.50
2023-08-14 05:25:00,SystemResetWarning,0840.7,5.00,000.00,029.4,028.0,000.0,038.0,031.1,21.4,0002.4,0010.16,0004.06,0003.50
2023-08-14 05:26:00,SystemResetWarning,0840.7,5.00,000.00,029.5,028.1,000.0,038.0,031.1,21.1,0002.5,0010.02,0004.07,0003.50
2023-08-14 05:27:00,SystemResetWarning,0840.7,5.00,000.00,029.5,028.2,000.0,038.0,031.1,21.0,0002.9,0010.56,0004.07,0003.50
2023-08-14 05:28:00,SystemResetWarning,0840.8,5.00,000.00,029.5,028.2,000.0,038.0,031.2,20.9,0002.9,0011.81,0004.08,0003.50
2023-08-14 05:29:00,SystemResetWarning,0840.7,5.00,000.00,029.5,028.3,000.0,038.1,031.2,20.7,0002.7,0011.99,0004.09,0003.50
2023-08-14 05:30:00,SystemResetWarning,0840.8,4.99,000.00,029.6,028.3,000.0,038.1,031.2,20.5,0002.7,0012.08,0004.07,0003.49
2023-08-14 05:31:00,SystemResetWarning,0840.7,4.99,000.00,029.6,028.4,000.0,038.1,031.3,20.4,0002.7,0013.10,0004.05,0003.49
2023-08-14 05:32:00,SystemResetWarning,0840.7,5.00,000.00,029.6,028.4,000.0,038.1,031.3,20.4,0002.5,0013.85,0004.05,0003.49
2023-08-14 05:33:00,SystemResetWarning,0840.7,5.01,000.00,029.6,028.5,000.0,038.1,031.3,20.2,0002.6,0014.31,0004.05,0003.49
2023-08-14 05:34:00,SystemResetWarning,0840.7,5.01,000.00,029.7,028.5,000.0,038.2,031.3,20.3,0002.3,0014.83,0004.06,0003.48
2023-08-14 05:35:00,SystemResetWarning,0840.8,5.01,000.00,029.7,028.5,000.0,038.2,031.4,20.2,0002.0,0014.89,0004.10,0003.48
2023-08-14 05:36:00,SystemResetWarning,0840.7,5.00,000.00,029.7,028.6,000.0,038.2,031.4,20.2,0001.6,0014.25,0004.13,0003.47
2023-08-14 05:37:00,SystemResetWarning,0840.8,5.00,000.00,029.7,028.6,000.0,038.2,031.4,20.1,0001.6,0013.76,0004.13,0003.47
2023-08-14 05:38:00,SystemResetWarning,0840.8,5.00,000.00,029.8,028.6,000.0,038.2,031.4,19.9,0001.5,0013.42,0004.13,0003.49
2023-08-14 05:39:00,SystemResetWarning,0840.7,4.99,000.00,029.8,028.1,000.0,038.2,031.3,19.9,0001.7,0012.54,0004.13,0003.49
2023-08-14 05:40:00,SystemResetWarning,0840.8,5.01,000.00,029.7,026.0,000.0,038.1,031.0,19.9,0001.8,0012.51,0004.11,0003.49
2023-08-14 05:41:00,SystemResetWarning,0840.8,5.01,000.00,029.6,025.3,000.0,038.0,030.8,20.0,0001.4,0012.85,0004.13,0003.49
2023-08-14 05:42:00,SystemResetWarning,0840.8,5.00,000.00,029.5,025.4,000.0,038.0,030.6,20.2,0001.7,0012.71,0004.16,0003.50
2023-08-14 05:43:00,SystemResetWarning,0840.8,5.00,000.00,029.4,025.8,000.0,038.0,030.6,20.6,0001.2,0011.57,0004.14,0003.50
2023-08-14 05:44:00,SystemResetWarning,0840.8,5.00,000.00,029.4,026.2,000.0,038.0,030.7,20.7,0001.0,0011.35,0004.12,0003.49
2023-08-14 05:45:00,SystemResetWarning,0840.8,5.00,000.00,029.4,026.6,000.0,038.0,030.8,20.7,0000.8,0011.00,0004.10,0003.49
2023-08-14 05:46:00,SystemResetWarning,0840.7,4.99,000.00,029.4,026.9,000.0,038.0,030.9,20.7,0000.9,0010.63,0004.13,0003.48
2023-08-14 05:47:00,SystemResetWarning,0840.7,4.99,000.00,029.4,027.2,000.0,038.0,030.9,20.7,0000.8,0010.75,0004.11,0003.48
2023-08-14 05:48:00,SystemResetWarning,0840.8,5.00,000.00,029.4,027.4,000.0,038.0,031.0,20.6,0001.0,0010.72,0004.11,0003.48
2023-08-14 05:49:00,SystemResetWarning,0840.8,5.01,000.00,029.4,027.6,000.0,038.0,031.0,20.4,0000.5,0010.86,0004.16,0003.48
2023-08-14 05:50:00,SystemResetWarning,0840.8,5.01,000.00,029.4,027.7,000.0,038.0,031.0,20.3,0000.8,0011.02,0004.16,0003.48
2023-08-14 05:51:00,SystemResetWarning,0840.8,5.00,000.00,029.4,027.9,000.0,038.0,031.1,20.2,-000.0,0012.07,0004.16,0003.47
2023-08-14 05:52:00,SystemResetWarning,0840.7,4.99,000.00,029.5,028.0,000.0,038.0,031.1,20.1,0000.5,0011.91,0004.14,0003.47
2023-08-14 05:53:00,SystemResetWarning,0840.8,4.99,000.00,029.5,028.1,000.0,038.0,031.1,20.2,0000.7,0011.44,0004.14,0003.48
2023-08-14 05:54:00,SystemResetWarning,0840.8,4.99,000.00,029.5,028.1,000.0,038.0,031.1,20.2,0002.0,0011.50,0004.15,0003.49
2023-08-14 05:55:00,SystemResetWarning,0840.8,5.00,000.00,029.5,028.2,000.0,038.1,031.1,20.1,0002.5,0011.10,0004.12,0003.50
2023-08-14 05:56:00,SystemResetWarning,0840.7,5.00,000.00,029.5,028.3,000.0,038.1,031.2,20.0,0002.8,0010.74,0004.12,0003.50
2023-08-14 05:57:00,SystemResetWarning,0840.7,5.01,000.00,029.6,028.3,000.0,038.1,031.2,20.0,0003.1,0010.77,0004.07,0003.50
2023-08-14 05:58:00,SystemResetWarning,0840.7,5.01,000.00,029.6,028.4,000.0,038.1,031.2,20.4,0003.0,0010.54,0004.06,0003.50
2023-08-14 05:59:00,SystemResetWarning,0840.7,5.01,000.00,029.6,028.4,000.0,038.1,031.3,20.1,0002.6,0010.59,0004.07,0003.51
